When you browse on this site, cookies collect data to enhance your experience and personalize the content and advertising you see.
Visit our Privacy Policy to learn more. By continuing to use the site, you agree to this use of cookies and data.
  • In Latvia
  • List of Countries
  • For 7 days
  • Water Temperature
  • Satellite Maps
  • Weather Map
  • Weather Widgets
  • user-avatar
    Login

    Hourly Weather Salem

    Today, 22 July, Monday

    Time Temperature Precipitation Wind Pressure Humidity
    00:00 +15°C° 0 mm 1 mps 757 mmHg 78%
    01:00 +14°C° 0 mm 1 mps 757 mmHg 80%
    02:00 +14°C° 0 mm 1 mps 757 mmHg 81%
    03:00 +14°C° 0 mm 1 mps 757 mmHg 82%
    04:00 +13°C° 0 mm 1 mps 758 mmHg 83%
    05:00 +15°C° 0 mm 1 mps 758 mmHg 78%
    06:00 +16°C° 0 mm 1 mps 758 mmHg 72%
    07:00 +18°C° 0 mm 1 mps 758 mmHg 67%
    08:00 +21°C° 0 mm 1 mps 758 mmHg 60%
    09:00 +23°C° 0 mm 1 mps 758 mmHg 54%
    10:00 +23°C° 0 mm 0 mps 758 mmHg 48%
    11:00 +27°C° 0 mm 1 mps 758 mmHg 45%
    12:00 +28°C° 0 mm 1 mps 758 mmHg 42%
    13:00 +30°C° 0 mm 1 mps 757 mmHg 39%
    14:00 +30°C° 0 mm 1 mps 757 mmHg 38%
    15:00 +30°C° 0 mm 1 mps 757 mmHg 38%
    16:00 +30°C° 0 mm 2 mps 757 mmHg 37%
    17:00 +28°C° 0 mm 2 mps 757 mmHg 44%
    18:00 +25°C° 0 mm 2 mps 757 mmHg 52%
    19:00 +22°C° 0 mm 3 mps 757 mmHg 59%
    20:00 +20°C° 0 mm 2 mps 758 mmHg 66%
    21:00 +19°C° 0 mm 1 mps 758 mmHg 73%
    22:00 +16°C° 0 mm 1 mps 758 mmHg 80%
    23:00 +15°C° 0 mm 1 mps 758 mmHg 83%

    Tomorrow, 23 July, Tuesday

    Time Temperature Precipitation Wind Pressure Humidity
    00:00 +14°C° 0 mm 0 mps 758 mmHg 86%
    01:00 +13°C° 0 mm 0 mps 758 mmHg 89%
    02:00 +13°C° 0 mm 0 mps 758 mmHg 88%
    03:00 +13°C° 0 mm 0 mps 758 mmHg 88%
    04:00 +14°C° 0 mm 0 mps 758 mmHg 87%
    05:00 +15°C° 0 mm 0 mps 758 mmHg 83%
    06:00 +16°C° 0 mm 0 mps 758 mmHg 79%
    07:00 +17°C° 0 mm 0 mps 758 mmHg 75%
    08:00 +21°C° 0 mm 1 mps 758 mmHg 68%
    09:00 +23°C° 0 mm 1 mps 758 mmHg 61%
    10:00 +25°C° 0 mm 1 mps 758 mmHg 54%
    11:00 +26°C° 0 mm 1 mps 758 mmHg 53%
    12:00 +27°C° 0 mm 2 mps 758 mmHg 51%
    13:00 +27°C° 0 mm 2 mps 758 mmHg 49%
    14:00 +27°C° 0 mm 3 mps 758 mmHg 49%
    15:00 +27°C° 0 mm 4 mps 758 mmHg 49%
    16:00 +26°C° 0 mm 4 mps 758 mmHg 49%
    17:00 +23°C° 0 mm 4 mps 759 mmHg 57%
    18:00 +21°C° 0 mm 4 mps 759 mmHg 64%
    19:00 +19°C° 0 mm 4 mps 760 mmHg 71%
    20:00 +17°C° 0 mm 3 mps 761 mmHg 76%
    21:00 +16°C° 0 mm 2 mps 761 mmHg 81%
    22:00 +14°C° 0 mm 1 mps 762 mmHg 86%
    23:00 +14°C° 0 mm 1 mps 762 mmHg 88%

    Day after tomorrow, 24 July, Wednesday

    Time Temperature Precipitation Wind Pressure Humidity
    00:00 +13°C° 0 mm 1 mps 763 mmHg 90%
    01:00 +13°C° 0 mm 1 mps 763 mmHg 92%
    02:00 +11°C° 0 mm 0 mps 763 mmHg 93%
    03:00 +11°C° 0 mm 0 mps 763 mmHg 93%
    04:00 +11°C° 0 mm 0 mps 763 mmHg 93%
    05:00 +12°C° 0 mm 0 mps 763 mmHg 88%
    06:00 +14°C° 0 mm 1 mps 764 mmHg 83%
    07:00 +16°C° 0 mm 1 mps 764 mmHg 78%
    08:00 +18°C° 0 mm 1 mps 763 mmHg 70%
    09:00 +19°C° 0 mm 2 mps 763 mmHg 62%
    10:00 +21°C° 0 mm 3 mps 762 mmHg 53%
    11:00 +24°C° 0 mm 3 mps 762 mmHg 49%
    12:00 +25°C° 0 mm 3 mps 761 mmHg 44%
    13:00 +26°C° 0 mm 3 mps 761 mmHg 40%
    14:00 +27°C° 0 mm 3 mps 761 mmHg 39%
    15:00 +28°C° 0 mm 3 mps 760 mmHg 37%
    16:00 +28°C° 0 mm 4 mps 760 mmHg 36%
    17:00 +27°C° 0 mm 3 mps 760 mmHg 43%
    18:00 +25°C° 0 mm 3 mps 760 mmHg 50%
    19:00 +24°C° 0 mm 2 mps 760 mmHg 57%
    20:00 +20°C° 0 mm 2 mps 760 mmHg 65%
    21:00 +18°C° 0 mm 2 mps 760 mmHg 73%
    22:00 +16°C° 0 mm 2 mps 760 mmHg 80%
    23:00 +15°C° 0 mm 1 mps 760 mmHg 83%

    25 July, Thursday

    Time Temperature Precipitation Wind Pressure Humidity
    00:00 +15°C° 0 mm 1 mps 760 mmHg 85%
    01:00 +14°C° 0 mm 1 mps 760 mmHg 88%
    02:00 +13°C° 0 mm 1 mps 759 mmHg 89%
    03:00 +13°C° 0 mm 1 mps 759 mmHg 90%
    04:00 +12°C° 0 mm 1 mps 759 mmHg 90%
    05:00 +14°C° 0 mm 1 mps 759 mmHg 84%
    06:00 +15°C° 0 mm 1 mps 759 mmHg 78%
    07:00 +18°C° 0 mm 1 mps 759 mmHg 72%
    08:00 +19°C° 0 mm 2 mps 759 mmHg 65%
    09:00 +21°C° 0 mm 2 mps 758 mmHg 57%
    10:00 +24°C° 0 mm 3 mps 758 mmHg 50%
    11:00 +26°C° 0 mm 3 mps 758 mmHg 45%
    12:00 +28°C° 0 mm 3 mps 757 mmHg 39%
    13:00 +29°C° 0 mm 4 mps 757 mmHg 34%
    14:00 +30°C° 0 mm 4 mps 756 mmHg 33%
    15:00 +30°C° 0 mm 4 mps 756 mmHg 31%
    16:00 +32°C° 0 mm 4 mps 755 mmHg 30%
    17:00 +29°C° 0 mm 3 mps 756 mmHg 37%
    18:00 +27°C° 0 mm 3 mps 756 mmHg 44%
    19:00 +25°C° 0 mm 2 mps 756 mmHg 51%
    20:00 +23°C° 0 mm 2 mps 756 mmHg 57%
    21:00 +21°C° 0 mm 1 mps 756 mmHg 62%
    22:00 +19°C° 0 mm 1 mps 757 mmHg 68%
    23:00 +18°C° 0 mm 1 mps 757 mmHg 71%

    26 July, Friday

    Time Temperature Precipitation Wind Pressure Humidity
    00:00 +16°C° 0 mm 1 mps 757 mmHg 75%
    01:00 +14°C° 0 mm 0 mps 757 mmHg 78%
    02:00 +14°C° 0 mm 0 mps 757 mmHg 81%
    03:00 +13°C° 0 mm 0 mps 757 mmHg 83%
    04:00 +13°C° 0 mm 0 mps 757 mmHg 85%
    05:00 +14°C° 0 mm 0 mps 757 mmHg 80%
    06:00 +16°C° 0 mm 0 mps 757 mmHg 74%
    07:00 +17°C° 0 mm 0 mps 758 mmHg 69%
    08:00 +20°C° 0 mm 0 mps 758 mmHg 62%
    09:00 +24°C° 0 mm 1 mps 757 mmHg 56%
    10:00 +26°C° 0 mm 1 mps 757 mmHg 49%
    11:00 +28°C° 0 mm 1 mps 757 mmHg 45%
    12:00 +30°C° 0 mm 1 mps 757 mmHg 42%
    13:00 +31°C° 0 mm 1 mps 757 mmHg 38%
    14:00 +31°C° 0 mm 1 mps 757 mmHg 38%
    15:00 +31°C° 0 mm 2 mps 757 mmHg 38%
    16:00 +31°C° 0 mm 2 mps 757 mmHg 38%
    17:00 +29°C° 0 mm 3 mps 757 mmHg 46%
    18:00 +26°C° 0 mm 3 mps 758 mmHg 54%
    19:00 +24°C° 0 mm 3 mps 758 mmHg 62%
    20:00 +21°C° 0 mm 2 mps 759 mmHg 70%
    21:00 +19°C° 0 mm 2 mps 759 mmHg 78%
    22:00 +18°C° 0 mm 1 mps 760 mmHg 86%
    23:00 +16°C° 0 mm 1 mps 760 mmHg 88%

    27 July, Saturday

    Time Temperature Precipitation Wind Pressure Humidity
    00:00 +16°C° 0 mm 1 mps 760 mmHg 90%
    01:00 +15°C° 0 mm 1 mps 760 mmHg 92%
    02:00 +15°C° 0 mm 1 mps 760 mmHg 93%
    03:00 +15°C° 0 mm 1 mps 760 mmHg 94%
    04:00 +15°C° 0 mm 1 mps 761 mmHg 95%
    05:00 +16°C° 0 mm 1 mps 761 mmHg 90%
    06:00 +18°C° 0 mm 1 mps 761 mmHg 86%
    07:00 +18°C° 0 mm 2 mps 761 mmHg 81%
    08:00 +19°C° 0 mm 2 mps 761 mmHg 78%
    09:00 +20°C° 0 mm 2 mps 761 mmHg 75%
    10:00 +22°C° 0 mm 1 mps 761 mmHg 73%
    11:00 +23°C° 0 mm 2 mps 761 mmHg 67%
    12:00 +25°C° 0 mm 2 mps 761 mmHg 62%
    13:00 +26°C° 0 mm 2 mps 761 mmHg 57%
    14:00 +26°C° 0 mm 2 mps 761 mmHg 54%
    15:00 +26°C° 0 mm 3 mps 761 mmHg 52%
    16:00 +26°C° 0 mm 4 mps 761 mmHg 50%
    17:00 +23°C° 0 mm 4 mps 761 mmHg 54%
    18:00 +21°C° 0 mm 3 mps 761 mmHg 58%
    19:00 +19°C° 0 mm 3 mps 762 mmHg 62%
    20:00 +17°C° 0 mm 2 mps 762 mmHg 71%
    21:00 +15°C° 0 mm 2 mps 762 mmHg 80%
    22:00 +13°C° 0 mm 1 mps 763 mmHg 89%
    23:00 +13°C° 0 mm 1 mps 763 mmHg 90%
    Show more